sat.trackr.live / text

‹ back to catalog

GEESAT-2 06

NORAD 58910 · 2024-023F

PAYLOAD ACTIVE UNKNOWN

§ Identity

Operator
Country
PRC
Launch date
2024-02-02
Launch site
XICLF
Launch vehicle
Mass (kg)
RCS (m²)

External: N2YO · Heavens-Above · Gunter

§ Orbital elements

Epoch: 2026-05-25T04:35:14.901216Z

Period
95.75 min
Inclination
49.9890°
Eccentricity
0.0005997
Mean motion
15.03908271 rev/d
Perigee alt
550.7 km
Apogee alt
559.0 km
Semi-major
6,933.0 km
B*
3.9468e-4
RAAN
49.7312°
Arg perigee
325.7220°
Mean anomaly
34.3339°
Rev number
12,618

§ Raw data

GEESAT-2 061 58910U 24023F   26145.19114469  .00005240  00000+0  39468-3 0  99902 58910  49.9890  49.7312 0005997 325.7220  34.3339 15.03908271126180

JSON: /api/v1/satellites/58910 · /tle

For live sub-satellite position, see the globe view (requires WebGL).

§ Visibility from observer

Set your observer location to see the next 7 days of passes ≥ 10°. The values pass through the URL so the page stays shareable.

No JS? Fill the form by hand. The geolocation button needs JavaScript.